Location: Franzen
(48.6167°N, 15.3833°E)
Time: 07:06:29
(UTC+00:00)

ARIANE 5 R/B - Pass Details

Date: 04 August 2021
Orbit: 620 x 656 km, 98.1° (Epoch: 11 September)

Event Time Altitude Azimuth Distance (km) Brightness Sun altitude
Exits shadow 19:31:04 12° 125° (SE) 1,920 4.4 -9.1°
Maximum altitude 19:34:39 31° 66° (ENE) 1,122 3.7 -9.5°
Drops below altitude 10° 19:38:33 10° 4° (N) 2,035 5.7 -10.0°
Sets 19:40:55 0° 355° (N) 2,942 6.8 -10.3°
